Weather History for Kenai, AK

Change the Weather History Date:

Tuesday, August 19, 2014

  Actual Average Record
Temperature  
Mean Temperature 56 °F -  
Max Temperature 68 °F 61 °F 72 °F (1983)
Min Temperature 43 °F 45 °F 32 °F (1998)
Degree Days  
Heating Degree Days 10    
Growing Degree Days 6 (Base 50)    
Moisture  
Dew Point 50 °F    
Average Humidity 90    
Maximum Humidity 100    
Minimum Humidity 59    
Precipitation  
Precipitation 0.00 in - - ()
Sea Level Pressure  
Sea Level Pressure 29.99 in    
Wind  
Wind Speed 3 mph (SW)    
Max Wind Speed 12 mph    
Max Gust Speed -    
Visibility 7 miles    
Events Fog    
Averages and records for this station are not official NWS values.
T = Trace of Precipitation, MM = Missing Value Source: NWS Daily Summary

Daily Weather History Graph

Daily Weather History Graph

Search for Another Location

Airport:

Trip Planner

Search our weather history database for the weather conditions in past years. The results will help you decide how hot, cold, wet, or windy it might be!

Date:

Astronomy

Aug. 19, 2014 Rise Set
Actual Time 6:26 AM AKDT 9:48 PM AKDT
Civil Twilight 5:36 AM AKDT 10:38 PM AKDT
Nautical Twilight 4:22 AM AKDT 11:50 PM AKDT
Astronomical Twilight 2:41 AM AKDT 1:35 AM AKDT
Moon 12:57 AM AKDT (8/19) 6:25 PM AKDT (8/19)
Length of Visible Light 17h 02m
Length of Day
15h 21m
Waning Crescent, 28% of the Moon is Illuminated
Aug 19
Waning Crescent
Aug 25
New
Sep 2
First Quarter
Sep 8
Full
Sep 15
Last Quarter

Hourly Weather History & Observations

Time (AKDT) Temp. Windchill Dew Point Humidity Pressure Visibility Wind Dir Wind Speed Gust Speed Precip Events Conditions
12:53 AM 53.6 °F - 48.2 °F 82% 29.98 in 10.0 mi Calm Calm - N/A   Clear
1:33 AM 48.2 °F - 48.2 °F 100% 29.98 in 2.5 mi Calm Calm - N/A   Clear
1:41 AM 48.2 °F - 48.2 °F 100% 29.98 in 10.0 mi Calm Calm - N/A   Clear
1:53 AM 48.9 °F - 48.0 °F 97% 29.99 in 10.0 mi Calm Calm - N/A   Clear
2:53 AM 46.9 °F - 46.0 °F 97% 30.00 in 8.0 mi NE 3.5 mph - N/A   Clear
3:53 AM 46.4 °F - 46.4 °F 100% 30.00 in 10.0 mi Calm Calm - N/A   Clear
4:39 AM 44.6 °F - 44.6 °F 100% 29.99 in 2.0 mi Calm Calm - N/A   Clear
4:49 AM 44.6 °F - 44.6 °F 100% 29.99 in 8.0 mi Calm Calm - N/A   Clear
4:53 AM 44.1 °F - 43.0 °F 96% 30.00 in 10.0 mi Calm Calm - N/A   Clear
5:14 AM 44.6 °F - 44.6 °F 100% 30.00 in 2.5 mi Calm Calm - N/A   Clear
5:31 AM 44.6 °F - 44.6 °F 100% 30.00 in 5.0 mi Calm Calm - N/A   Clear
5:37 AM 44.6 °F 43.1 °F 42.8 °F 93% 30.00 in 1.8 mi NE 3.5 mph - N/A   Partly Cloudy
5:49 AM 44.6 °F - 42.8 °F 93% 30.00 in 4.0 mi Calm Calm - N/A   Partly Cloudy
5:53 AM 44.1 °F - 43.0 °F 96% 30.01 in 10.0 mi Calm Calm - N/A   Clear
6:53 AM 43.0 °F 41.3 °F 43.0 °F 100% 30.01 in 10.0 mi East 3.5 mph - N/A   Clear
7:11 AM 44.6 °F - 42.8 °F 93% 30.00 in 2.0 mi Calm Calm - N/A   Clear
7:15 AM 44.6 °F - 44.6 °F 100% 30.00 in 10.0 mi Calm Calm - N/A   Clear
7:53 AM 46.9 °F - 45.0 °F 93% 30.01 in 10.0 mi Calm Calm - N/A   Clear
8:53 AM 53.1 °F - 48.0 °F 83% 30.01 in 10.0 mi Calm Calm - N/A   Clear
9:53 AM 57.0 °F - 52.0 °F 83% 30.01 in 10.0 mi Calm Calm - N/A   Clear
10:53 AM 59.0 °F - 52.0 °F 78% 30.01 in 10.0 mi SSW 3.5 mph - N/A   Clear
11:53 AM 62.1 °F - 52.0 °F 70% 30.01 in 10.0 mi Calm Calm - N/A   Clear
12:53 PM 64.4 °F - 53.6 °F 68% 30.00 in 10.0 mi West 4.6 mph - N/A   Partly Cloudy
1:53 PM 66.0 °F - 54.0 °F 65% 29.99 in 10.0 mi WNW 5.8 mph - N/A   Clear
2:53 PM 66.0 °F - 54.0 °F 65% 29.99 in 10.0 mi WNW 6.9 mph - N/A   Clear
3:53 PM 66.9 °F - 54.0 °F 63% 29.98 in 10.0 mi WNW 6.9 mph - N/A   Clear
4:53 PM 68.0 °F - 53.1 °F 59% 29.97 in 10.0 mi WNW 8.1 mph - N/A   Clear
5:53 PM 66.0 °F - 51.1 °F 59% 29.97 in 10.0 mi West 9.2 mph - N/A   Clear
6:53 PM 62.1 °F - 50.0 °F 65% 29.97 in 10.0 mi WSW 5.8 mph - N/A   Clear
7:38 PM 55.4 °F - 53.6 °F 94% 29.97 in 2.5 mi SSW 11.5 mph - N/A   Scattered Clouds
7:41 PM 55.4 °F - 53.6 °F 94% 29.97 in 1.0 mi SW 10.4 mph - N/A   Mist
7:50 PM 55.4 °F - 53.6 °F 94% 29.97 in 0.2 mi SSW 11.5 mph - N/A Fog Fog
7:53 PM 55.0 °F - 54.0 °F 96% 29.98 in 0.2 mi SSW 10.4 mph - N/A Fog Fog
8:14 PM 53.6 °F - 53.6 °F 100% 29.97 in 0.8 mi SSW 6.9 mph - N/A   Mist
8:25 PM 53.6 °F - 53.6 °F 100% 29.97 in 0.2 mi SSW 6.9 mph - N/A Fog Fog
8:53 PM 53.1 °F - 53.1 °F 100% 29.98 in 0.2 mi SSW 8.1 mph - N/A Fog Fog
9:30 PM 53.6 °F - 53.6 °F 100% 29.98 in 1.0 mi SSW 10.4 mph - N/A   Mist
9:34 PM 53.6 °F - 53.6 °F 100% 29.98 in 3.0 mi SSW 10.4 mph - N/A   Overcast
9:53 PM 53.1 °F - 53.1 °F 100% 29.99 in 10.0 mi SSW 9.2 mph - N/A   Overcast
10:01 PM 53.6 °F - 53.6 °F 100% 29.99 in 10.0 mi SSW 9.2 mph - N/A   Mostly Cloudy
10:53 PM 54.0 °F - 53.1 °F 97% 30.00 in 10.0 mi SSW 9.2 mph - N/A   Clear
11:20 PM 53.6 °F - 53.6 °F 100% 30.00 in 10.0 mi South 9.2 mph - N/A   Partly Cloudy
11:30 PM 53.6 °F - 53.6 °F 100% 30.00 in 8.0 mi South 11.5 mph - N/A   Mostly Cloudy
11:53 PM 53.1 °F - 52.0 °F 96% 30.01 in 10.0 mi SW 9.2 mph - N/A   Overcast